Regional Weather Roundup
Issued by NWS Boston, MA

Home | Current Version | Previous Version | Text Only | Print | Product List | Glossary On
Versions: 1 2 3 4 5 6 7 8 9 10 11 12 13 14 15 16 17 18 19 20 21 22 23 24 25 26 27
000
ASUS41 KBOX 271010
RWRBOX

REGIONAL WEATHER ROUNDUP
NATIONAL WEATHER SERVICE TAUNTON MA
600 AM EDT TUE JUN 27 2017

NOTE:  "FAIR" INDICATES FEW OR NO CLOUDS BELOW 12,000 FEET WITH NO
SIGNIFICANT WEATHER AND/OR OBSTRUCTIONS TO VISIBILITY.

MAZALL-271100-
EASTERN MASSACHUSETTS

CITY           SKY/WX    TMP DP  RH WIND       PRES   REMARKS
BOSTON         MOCLDY    63  56  78 SW6       30.00R
BEVERLY        MOCLDY    57  54  89 CALM      30.00R
LAWRENCE       CLOUDY    60  56  86 SE3       30.01F
BEDFORD        PTCLDY    55  51  86 CALM      30.00R
BLUE HILL        N/A     60  55  83 SW8       30.00R
NORWOOD        PTCLDY    54  53  97 CALM      30.00R
MARSHFIELD     CLEAR     59  55  88 CALM      30.00S
PLYMOUTH       CLEAR     60  56  86 VRB3      30.01S
TAUNTON        CLEAR     56  54  93 CALM      30.00S
NEW BEDFORD    MOCLDY    55  54  96 CALM      30.01R
$$

MAZALL-271100-
CAPE COD AND THE ISLANDS

CITY           SKY/WX    TMP DP  RH WIND       PRES   REMARKS
FALMOUTH       CLEAR     57  57 100 CALM      30.02S
HYANNIS        CLEAR     63  60  90 S3        30.01S
CHATHAM        CLEAR     63  62  97 S3        30.03S
PROVINCETOWN   CLEAR     63  59  87 S8        30.02R
NANTUCKET      CLEAR     62  58  86 S5        30.03S
MARTHAS VNYRD  CLEAR     53  52  96 CALM      30.02S
$$

MAZALL-271100-
CENTRAL AND WESTERN MASSACHUSETTS

CITY           SKY/WX    TMP DP  RH WIND       PRES   REMARKS
WORCESTER      CLOUDY    60  48  64 CALM      30.01S
FITCHBURG      CLOUDY    57  54  89 CALM      30.01S
ORANGE         FOG       55  55 100 CALM      29.99S VSB 1/4
SPRINGFIELD    MOCLDY    56  54  93 CALM      29.98S
WESTFIELD      MOCLDY    56  55  97 CALM        N/A
NORTH ADAMS    CLOUDY    53  52  96 CALM      30.00F
PITTSFIELD     CLOUDY    53  52  96 CALM      29.99S
$$

RIZALL-271100-
RHODE ISLAND

CITY           SKY/WX    TMP DP  RH WIND       PRES   REMARKS
PROVIDENCE     PTCLDY    59  58  96 CALM      30.01S
NEWPORT        PTCLDY    60  60 100 CALM      30.01R
BLOCK ISLAND     N/A     65  63  93 W10       30.02R
WESTERLY       FOG       59  58  96 E3        30.01S VSB 1/4
$$

CTZALL-271100-
CONNECTICUT

CITY           SKY/WX    TMP DP  RH WIND       PRES   REMARKS
BRADLEY INTL   CLOUDY    59  54  83 SW5       30.00S
HARTFORD       MOCLDY    61  56  83 CALM      30.00S
BRIDGEPORT     NOT AVBL
GROTON         PTCLDY    61  58  90 NE3       29.99S
NEW HAVEN      MOCLDY    61  57  88 NE5       30.00
CHESTER        MOCLDY    61  57  88 CALM      30.00F
MERIDEN        CLOUDY    60  55  83 NW6       30.01R
WILLIMANTIC    CLOUDY    57  55  93 CALM      30.01S
OXFORD         LGT RAIN  57  50  77 S6        30.02R
$$

MEZ002-015-021-024-NHZ003-005-008-011-012-014-VTZ005-008-271100-
NORTHERN NEW ENGLAND

CITY           SKY/WX    TMP DP  RH WIND       PRES   REMARKS
PORTLAND ME    PTCLDY    58  52  80 CALM      29.99R
BANGOR ME      CLOUDY    57  55  93 CALM      29.99R
CONCORD NH     CLOUDY    56  54  93 CALM      29.99S
MANCHESTER NH  CLOUDY    57  53  86 S3        29.98S
NASHUA NH      CLOUDY    56  55  97 CALM      30.00S
PORTSMOUTH NH  MOCLDY    57  54  91 CALM      29.98F
JAFFREY NH     CLOUDY    54  54 100 CALM      30.01R
KEENE NH       CLOUDY    55  54  96 S3        30.00R
BURLINGTON VT  PTCLDY    57  54  89 S9        29.96S
MT. WASHINGTON PTCLDY    39  36  87 SW22        N/A  WCI  29
$$

NYZ052-076-271100-
EASTERN NEW YORK

CITY           SKY/WX    TMP DP  RH WIND       PRES   REMARKS
ALBANY         CLOUDY    56  54  93 CALM      29.99S
NEW YORK CITY  RAIN      63  58  83 CALM      30.02R
$$

ANZALL-271100-
MARINE OBSERVATIONS

STATION/POSITION TIME  TEMP    WIND        PRES    VSBY  WAVE
                       AIR SEA DIR/SP/G                  HT/PER
                 (UTC) (F)     (DEG/KT/KT) (MB)    (MI)  (FT/S)
BOSTON BUOY      0850   60 60  280/  4/  6 1015.5          1/ 8
BUZZARDS BAY     0900   64     190/  7/  8 1016.4F
NANTUCKET SOUND  0950      64              1016.4F         0
MASS BAY-STELLWA 0904   60 60  300/  2/  2 1014.9R         1/ 8
ISLE OF SHOALS   0900   59     240/  9/  9 1015.7R
S OF BLOCK IS    0955      63                N/A           2/ 7
$$

......................KEY.........................
  SKY/WX - SKY CONDITION/PRESENT WEATHER
  TMP    - TEMPERATURE IN FAHRENHEIT
  DWPT   - DEWPOINT IN FAHRENHEIT
  RH     - RELATIVE HUMIDITY IN PERCENT
  WIND   - DIRECTION AND SPEED IN MPH
  PRES   - MEAN SEA LEVEL PRESSURE IN INCHES OF HG
  WCI    - WIND CHILL INDEX
  VSB    - VISIBILITY IN MILES
  HX     - HEAT INDEX
  TC     - TEMPERATURE IN CELSIUS
  VRB    - VARIABLE WIND DIRECTION
  N/A    - NOT AVAILABLE




USA.gov is the U.S. government's official web portal to all federal, state and local government web resources and services.